Mekong — WDE6357 — position and weather

sailwx.info

Track history (hours):
 
Tides and Currents Weather Stations Pressure Air Temp Water Temp Dewpoint Dewpoint Depression Visibility Wind Speed Wind Dir Waves Ship Positions

Mekong

Owner: Rubys LLC, North Plainfield, NJ. More information available from US FCC via Universal Licensing System and Coast Guard Vessel Documentation Center.

Last reported at 2014-Sep-02 23:27 UTC. Time now 2014-Oct-30 17:37 UTC.
Position N 39°18' W 073°38'.
Warning: this ship's position is 57 days out of date.

Length 26 m.

Type: Pollution control. MMSI: 367379210.

Date/timePositionNaut miles runAvg speedWind from/ knotsBaromVisibWave heightAir tempDewpointWater temp
2014-Sep-02 23:27N 39°18' W 073°38'3 0.3
2014-Sep-02 14:30N 39°20' W 073°36'3 2.5
2014-Sep-02 13:28N 39°20' W 073°33'9 2.1
2014-Sep-02 09:18N 39°15' W 073°24'16 3.3
2014-Sep-02 04:33N 39°03' W 073°36'1 1.0
2014-Sep-02 03:30N 39°02' W 073°36'4 1.0
2014-Sep-01 23:24N 39°04' W 073°32'23 1.0
2014-Sep-01 01:30N 39°24' W 073°18'9 2.8
2014-Aug-31 22:11N 39°20' W 073°29'2 3.7
2014-Aug-31 21:32N 39°18' W 073°27'10 4.2
2014-Aug-31 19:09N 39°08' W 073°32'4 4.1
2014-Aug-31 18:04N 39°04' W 073°33'10 0.9
2014-Aug-31 07:33N 38°56' W 073°40'2 1.6
2014-Aug-31 06:33N 38°56' W 073°38'2 1.7
2014-Aug-31 05:15N 38°58' W 073°40'1 1.5
2014-Aug-31 04:19N 38°58' W 073°41'5 6.4
2014-Aug-31 03:29N 38°57' W 073°48'  
Track history (hours):
 
Tides and Currents Weather Stations Pressure Air Temp Water Temp Dewpoint Dewpoint Depression Visibility Wind Speed Wind Dir Waves Ship Positions

Mekong

Owner: Rubys LLC, North Plainfield, NJ. More information available from US FCC via Universal Licensing System and Coast Guard Vessel Documentation Center.

Last reported at 2014-Sep-02 23:27 UTC. Time now 2014-Oct-30 17:37 UTC.
Position N 39°18' W 073°38'.
Warning: this ship's position is 57 days out of date.

Length 26 m.

Type: Pollution control. MMSI: 367379210.

Date/timePositionNaut miles runAvg speedWind from/ knotsBaromVisibWave heightAir tempDewpointWater temp
2014-Sep-02 23:27N 39°18' W 073°38'3 0.3
2014-Sep-02 14:30N 39°20' W 073°36'3 2.5
2014-Sep-02 13:28N 39°20' W 073°33'9 2.1
2014-Sep-02 09:18N 39°15' W 073°24'16 3.3
2014-Sep-02 04:33N 39°03' W 073°36'1 1.0
2014-Sep-02 03:30N 39°02' W 073°36'4 1.0
2014-Sep-01 23:24N 39°04' W 073°32'23 1.0
2014-Sep-01 01:30N 39°24' W 073°18'9 2.8
2014-Aug-31 22:11N 39°20' W 073°29'2 3.7
2014-Aug-31 21:32N 39°18' W 073°27'10 4.2
2014-Aug-31 19:09N 39°08' W 073°32'4 4.1
2014-Aug-31 18:04N 39°04' W 073°33'10 0.9
2014-Aug-31 07:33N 38°56' W 073°40'2 1.6
2014-Aug-31 06:33N 38°56' W 073°38'2 1.7
2014-Aug-31 05:15N 38°58' W 073°40'1 1.5
2014-Aug-31 04:19N 38°58' W 073°41'5 6.4
2014-Aug-31 03:29N 38°57' W 073°48'  

Dump ship's entire track history